Home > Weather > Ramsey > Past weeks

Flag for Isle of Man Past Weather in Ramsey, Isle of Man — Yesterday and Last 2 Weeks

Now
52 °F

Partly sunny.


Feels Like: 47 °F
Forecast: 51 / 58 °F
Wind: 15 mph from East

Location: Isle Of Man / Ronaldsway Airport

Current Time: May 25, 2016 at 2:10:57 PM

Latest Report: May 25, 2016 at 1:20 PM


Visibility: N/A

Pressure: 30.15 "Hg

Humidity: 62%

Dew Point: 39 °F

Location of RamseyLocation

Past Weather in Ramsey — Graph

°F

Ramsey Temperature Yesterday

Maximum temperature yesterday: 61 °F (at 4:20 PM)
Minimum temperature yesterday: 45 °F (at 3:50 AM)
Average temperature yesterday: 55 °F

High & Low Weather Summary for the Past Weeks

 TemperatureHumidityPressure
High72 °F (May 12, 3:50 PM)100% (May 17, 7:20 AM)30.24 "Hg (May 17, 7:20 AM)
Low41 °F (May 14, 3:50 AM)44% (May 14, 4:50 PM)29.50 "Hg (May 21, 5:50 AM)
Average54 °F76%29.90 "Hg
* Reported May 10 1:20 PM — May 25 1:20 PM, Ramsey, Weather by CustomWeather, © 2016

Note: Actual official high and low records may vary slightly from our data, if they occured in-between our weather recording intervals... More about our weather records

Advertising

Ramsey Weather History for the Previous 24 Hours

Scroll right to see more
 ConditionsComfort  
Time TempWeatherWind HumidityBarometerVisibility
1:20 PM
Wed, May 25
52 °FPartly sunny.15 mph62%30.15 "HgN/A
12:50 PM52 °FPartly sunny.15 mph67%30.15 "HgN/A
12:20 PM52 °FPartly sunny.16 mph67%30.15 "HgN/A
11:50 AM50 °FPartly sunny.13 mph71%30.15 "HgN/A
11:20 AM50 °FPartly sunny.12 mph71%30.15 "HgN/A
10:50 AM50 °FPartly sunny.14 mph71%30.15 "HgN/A
10:20 AM50 °FPartly sunny.12 mph71%30.15 "HgN/A
9:50 AM50 °FPartly sunny.9 mph67%30.15 "HgN/A
9:20 AM50 °FPartly sunny.12 mph67%30.18 "HgN/A
8:50 AM48 °FPartly sunny.13 mph71%30.18 "HgN/A
8:20 AM48 °FBroken clouds.15 mph71%30.18 "HgN/A
7:50 AM48 °FBroken clouds.13 mph71%30.18 "HgN/A
7:20 AM48 °FPartly sunny.12 mph71%30.18 "HgN/A
6:50 AM48 °FPartly sunny.14 mph71%30.18 "HgN/A
6:20 AM46 °FPartly sunny.8 mph71%30.18 "HgN/A
5:50 AM45 °FPassing clouds.8 mph76%30.18 "HgN/A
5:20 AM45 °FPassing clouds.12 mph71%30.18 "HgN/A
4:50 AM45 °FPassing clouds.13 mph71%30.18 "HgN/A
3:50 AM46 °FPassing clouds.15 mph66%30.18 "HgN/A
2:50 AM46 °FClear.14 mph71%30.21 "Hg10 mi
1:50 AM46 °FClear.16 mph76%30.21 "Hg10 mi
12:50 AM48 °FClear.15 mph71%30.21 "Hg10 mi
11:50 PM
Tue, May 24
50 °FPassing clouds.17 mph76%30.21 "HgN/A
10:50 PM52 °FPassing clouds.18 mph72%30.18 "HgN/A
9:50 PM54 °FPassing clouds.14 mph72%30.18 "HgN/A
9:20 PM55 °FPassing clouds.13 mph67%30.18 "HgN/A
8:50 PM57 °FPassing clouds.9 mph63%30.18 "HgN/A
8:20 PM57 °FScattered clouds.9 mph67%30.18 "HgN/A
7:50 PM57 °FPassing clouds.12 mph63%30.18 "HgN/A
7:20 PM59 °FPassing clouds.13 mph59%30.18 "HgN/A
6:50 PM59 °FPassing clouds.12 mph63%30.18 "HgN/A
6:20 PM59 °FPassing clouds.10 mph55%30.18 "HgN/A
5:50 PM61 °FPassing clouds.7 mph48%30.18 "HgN/A
5:20 PM59 °FPassing clouds.8 mph48%30.18 "HgN/A
4:50 PM61 °FPassing clouds.8 mph45%30.18 "HgN/A
4:20 PM61 °FPassing clouds.6 mph48%30.18 "HgN/A
3:50 PM59 °FPassing clouds.8 mph63%30.21 "HgN/A
3:20 PM59 °FPassing clouds.9 mph68%30.21 "HgN/A
2:50 PM59 °FPassing clouds.10 mph68%30.21 "HgN/A
2:20 PM59 °FPassing clouds.10 mph68%30.21 "HgN/A
Weather by CustomWeather, © 2016

See weather overviewHow to use our weather pages